[[{"header":{"parameterUnit":"m.s-1","parameterCategory":1,"la1":30.2992,"la2":30.254,"lo1":-89.0895,"lo2":-89.0443,"dy":0.0025,"dx":0.0025,"nx":19,"ny":19,"refTime":"2026-05-09T21:00:00:Z","depth":0,"parameterNumber":2,"parameterNumberName":"U-component_of_WINDS"},"data":[0,0,0,-3.9624,-3.9626,-3.9678,-3.9678,-3.9776,-3.9777,0,0,0,0,0,0,0,0,0,0,0,-3.9628,-3.9629,-3.9624,-3.9626,-3.9678,-3.9678,-3.9776,-3.9777,0,0,0,0,0,0,0,0,0,0,0,-3.9627,-3.9629,-3.9631,-3.9626,-3.9678,-3.9678,-3.9776,-3.9725,0,0,0,0,0,0,0,0,0,0,-3.967,-3.9691,-3.9629,-3.9631,-3.9627,-3.9678,-3.9678,-3.9722,-3.9728,-3.9767,0,-3.9805,0,-3.9793,-3.9786,-3.9786,0,0,0,-3.9612,-3.9686,-3.9683,-3.9631,-3.9627,-3.9678,-3.965,-3.9725,-3.9732,-3.9775,-3.9806,-3.9809,-3.9795,-3.9787,-3.9787,-4.0056,-4.0057,0,0,-3.9609,-3.9647,-3.9679,-3.9689,-3.9682,-3.9649,-3.9652,-3.9729,-3.9766,-3.9806,-3.981,-3.9796,-3.9788,-3.9789,-4.0054,-4.0056,0,0,0,-3.961,-3.9646,-3.964,-3.9686,-3.9692,-3.9651,-3.9654,-3.9762,-3.9757,-3.9811,-3.9797,-3.9788,-3.979,-4.0051,-4.0055,-4.0188,0,0,0,-3.9608,-3.9647,-3.964,-3.9664,-3.9692,-3.9728,-3.9686,-3.9752,-3.9759,-3.9797,-3.9788,-3.9791,-4.0049,-4.0053,-4.018,-4.0245,0,0,0,-3.9618,-3.9648,-3.9662,-3.9666,-3.9689,-3.9725,-3.9724,-3.9752,-3.9752,-3.9786,-3.9792,-4.0048,-4.0052,-4.0172,-4.0232,-4.0329,0,0,0,-3.964,-3.9778,-3.9664,-3.9813,-3.9689,-3.9808,-3.9723,-3.9809,-3.9855,-3.9789,-4.005,-4.0054,-4.017,-4.0225,-4.0321,-4.0417,-4.046,0,0,-3.9835,-3.9803,-3.9887,-3.9787,-3.9936,-3.9797,-3.9965,-3.997,-3.9937,-4.0018,-4.0024,-4.0182,-4.0232,-4.0327,-4.0688,-4.0722,0,0,0,-3.9962,-4.0024,-4.0055,-4.0101,-4.0109,-4.0122,-4.0097,-4.01,-4.0167,-3.9987,-4.0241,-4.0269,-4.0323,-4.0368,-4.0397,-4.0443,-4.0076,-4.0075,-4.0075,-4.0294,-4.0247,-4.0385,-4.0345,-4.0391,-4.0366,-4.0399,-4.0398,-4.0335,-4.0397,-4.0421,-4.0645,-4.0699,-4.072,-4.0768,-4.0466,-4.0467,-4.0467,-4.0468,-4.0578,-4.0658,-4.0574,-4.0678,-4.0628,-4.0715,-4.0697,-4.0651,-4.0725,-4.0622,-4.0668,-4.0561,-4.076,-4.08,-4.0477,-4.0476,-4.0474,-4.0473,-4.0473,-4.0791,-4.0821,-4.0823,-4.0887,-4.0941,-4.0896,-4.0973,-4.0923,-4.0877,-4.0923,-4.0944,-4.0942,-4.0935,-4.0936,-4.0937,-4.0938,-4.0938,-4.0939,-4.0939,-4.1011,-4.1009,-4.1079,-4.1102,-4.1127,-4.1153,-4.1132,-4.1155,-4.1168,-4.1126,-4.1126,-4.106,-4.0788,-4.0722,-4.0951,-4.0949,-4.0948,-4.0947,-4.0946,-4.1318,-4.1242,-4.1351,-4.1376,-4.14,-4.146,-4.1397,-4.1449,-4.1461,-4.1502,-4.1426,-4.1232,-4.1195,-4.1171,-4.1116,-4.1434,-4.1434,-4.1434,-4.1434,-4.1499,-4.1476,-4.1578,-4.1622,-4.166,-4.1615,-4.1742,-4.1728,-4.1701,-4.1707,-4.1654,-4.1576,-4.1554,-4.153,-4.1498,-4.1446,-4.1841,-4.1841,-4.1842,-4.1687,-4.1665,-4.1782,-4.1755,-4.1772,-4.1787,-4.1906,-4.1962,-4.1915,-4.1857,-4.1711,-4.1693,-4.1567,-4.1528,-4.1467,-4.1419,-4.1322,0,0]},{"header":{"parameterUnit":"m.s-1","parameterCategory":1,"la1":30.2992,"la2":30.254,"lo1":-89.0895,"lo2":-89.0443,"dy":0.0025,"dx":0.0025,"nx":19,"ny":19,"refTime":"2026-05-09T21:00:00:Z","depth":0,"parameterNumber":3,"parameterNumberName":"V-component_of_WINDS"},"data":[0,0,0,1.6865,1.6865,1.6873,1.6873,1.6867,1.6867,0,0,0,0,0,0,0,0,0,0,0,1.6854,1.6854,1.6865,1.6865,1.6873,1.6873,1.6868,1.6867,0,0,0,0,0,0,0,0,0,0,0,1.6854,1.6854,1.6854,1.6865,1.6873,1.6873,1.6868,1.6867,0,0,0,0,0,0,0,0,0,0,1.6861,1.6844,1.6854,1.6854,1.6865,1.6873,1.6873,1.6867,1.6867,1.6858,0,1.6849,0,1.6858,1.6866,1.6866,0,0,0,1.687,1.6844,1.6854,1.6854,1.6865,1.6873,1.6871,1.6867,1.6867,1.6857,1.6849,1.6849,1.6858,1.6866,1.6866,1.6801,1.68,0,0,1.6869,1.6851,1.6854,1.6854,1.6853,1.687,1.6871,1.6867,1.6856,1.6849,1.6849,1.6858,1.6866,1.6866,1.6801,1.6801,0,0,0,1.6865,1.685,1.6861,1.6853,1.6856,1.687,1.6871,1.6856,1.6861,1.6849,1.6858,1.6866,1.6866,1.6802,1.6801,1.6755,0,0,0,1.6865,1.6847,1.686,1.6848,1.6856,1.6856,1.686,1.6861,1.6862,1.6858,1.6866,1.6865,1.6802,1.6801,1.6758,1.6736,0,0,0,1.6856,1.6847,1.6845,1.6847,1.6851,1.6857,1.6862,1.6862,1.6866,1.6866,1.6865,1.6803,1.6802,1.676,1.674,1.6713,0,0,0,1.6841,1.6803,1.6844,1.6805,1.685,1.683,1.6862,1.6848,1.6842,1.6866,1.6802,1.6801,1.6761,1.6742,1.6715,1.6685,1.6672,0,0,1.6782,1.6795,1.6774,1.6811,1.6779,1.683,1.6791,1.6802,1.6818,1.6805,1.6804,1.6757,1.674,1.6713,1.6606,1.6595,0,0,0,1.6749,1.6733,1.6729,1.6724,1.6734,1.674,1.676,1.6765,1.6755,1.6809,1.6742,1.6732,1.6717,1.6703,1.6694,1.6682,1.6795,1.6795,1.6795,1.6636,1.6662,1.6628,1.6654,1.6649,1.6672,1.667,1.6679,1.6704,1.6689,1.6684,1.6616,1.66,1.6593,1.658,1.6672,1.6672,1.6672,1.6672,1.655,1.6531,1.657,1.655,1.6577,1.656,1.6581,1.66,1.6587,1.6621,1.6609,1.6642,1.658,1.657,1.6668,1.6669,1.6669,1.667,1.667,1.6477,1.6473,1.6481,1.6478,1.6473,1.6502,1.6489,1.6514,1.6536,1.6525,1.6522,1.6523,1.6525,1.6523,1.6522,1.6522,1.6522,1.6522,1.6522,1.6397,1.6409,1.6396,1.6405,1.6406,1.6411,1.6435,1.6436,1.6443,1.6462,1.6462,1.6488,1.6571,1.659,1.6518,1.6518,1.6519,1.6519,1.652,1.6297,1.6324,1.6304,1.6305,1.6319,1.6312,1.6346,1.6346,1.6351,1.6343,1.6374,1.6431,1.6445,1.6453,1.6468,1.637,1.637,1.637,1.6369,1.6233,1.6245,1.6231,1.6231,1.6235,1.6264,1.6239,1.6258,1.6282,1.6286,1.6305,1.6329,1.6335,1.6345,1.6355,1.637,1.6248,1.6248,1.6248,1.6173,1.6186,1.616,1.6187,1.62,1.6211,1.6188,1.6186,1.6218,1.6244,1.629,1.6295,1.6334,1.6345,1.6368,1.6383,1.6411,0,0]}]]